This is the latest recevied weather packets stored in our database for station/object N9BSW. If no packets are shown the sender has not sent any weather packets the latest 10 day(s).
| Time | Temp. | Humidity | Pressure | Rain* | Wind** | Luminosity | Snow |
|---|---|---|---|---|---|---|---|
| 1777830097 | 17.22° C | 36% | 1016.8 hPa | 0 mm | - | 566 W/m² | - |
| 1777829792 | 16.11° C | 38% | 1017.1 hPa | 0 mm | - | 1072 W/m² | - |
| 1777829489 | 16.67° C | 38% | 1017.2 hPa | 0 mm | - | 416 W/m² | - |
| 1777829186 | 16.67° C | 38% | 1017.3 hPa | 0 mm | - | 353 W/m² | - |
| 1777828884 | 16.67° C | 37% | 1017.2 hPa | 0 mm | - | 466 W/m² | - |
| 1777828580 | 17.22° C | 35% | 1017.2 hPa | 0 mm | - | 883 W/m² | - |
| 1777828277 | 16.67° C | 38% | 1017.3 hPa | 0 mm | - | 457 W/m² | - |
| 1777827974 | 16.11° C | 36% | 1017.4 hPa | 0 mm | - | 415 W/m² | - |
| 1777827671 | 16.67° C | 35% | 1017.2 hPa | 0 mm | - | 416 W/m² | - |
| 1777827368 | 17.22° C | 35% | 1017.2 hPa | 0 mm | - | 397 W/m² | - |
| 1777827064 | 16.67° C | 36% | 1017.5 hPa | 0 mm | - | 750 W/m² | - |
| 1777826761 | 17.22° C | 34% | 1017.4 hPa | 0 mm | - | 573 W/m² | - |
| 1777826458 | 17.22° C | 36% | 1017.4 hPa | 0 mm | - | 763 W/m² | - |
| 1777826155 | 16.11° C | 36% | 1017.3 hPa | 0 mm | - | 827 W/m² | - |
| 1777825852 | 16.11° C | 36% | 1017.6 hPa | 0 mm | - | 759 W/m² | - |
| 1777825549 | 16.67° C | 37% | 1017.8 hPa | 0 mm | - | 446 W/m² | - |
| 1777825247 | 16.67° C | 35% | 1018 hPa | 0 mm | - | 503 W/m² | - |
| 1777824943 | 16.67° C | 37% | 1018.1 hPa | 0 mm | - | 699 W/m² | - |
| 1777824640 | 16.67° C | 37% | 1018.1 hPa | 0 mm | - | 801 W/m² | - |
| 1777824338 | 16.11° C | 38% | 1018.3 hPa | 0 mm | - | 826 W/m² | - |
| 1777824033 | 15.56° C | 38% | 1018.3 hPa | 0 mm | - | 755 W/m² | - |
| 1777823729 | 16.11° C | 35% | 1018.5 hPa | 0 mm | - | 784 W/m² | - |
| 1777823426 | 16.11° C | 38% | 1018.6 hPa | 0 mm | - | 747 W/m² | - |
| 1777823124 | 15.56° C | 41% | 1018.5 hPa | 0 mm | - | 727 W/m² | - |
| 1777822821 | 15° C | 41% | 1018.5 hPa | 0 mm | - | 714 W/m² | - |
* Rain latest hour (hover to see other rain measurements)
** Current wind speed in m/s (hover to see current wind gust speed)